Retour au catalogue

STARLINK-4612

ActifCommunicationsVLEO
NORAD 53750·PAYLOAD·🇺🇸 United States

Lancé Sep 5, 2022 depuis Cape Canaveral Space Force Station

Loading…

Prochains Passages (prochaines 24 heures)

TLE

FraisSource: CelesTrak SupGP

Époque: Sep 14, 2026, 22:02 UTC

1 53750C 22107BC  26257.91854167 -.00008907  00000+0 -26320-3 0  2573
2 53750  53.1570 119.5030 0001250  88.0185  47.3060 15.34388675    11

Suivez STARLINK-4612 en temps réel avec AllMySat

Download on the App Store